This demonstration page uses our WeatherBlox Daily Observations layout. Learn more.

Left ArrowRight Arrow

34.74481, -87.66753

Hourly Observations for July 14, 2016

Temp ( °F °C ) Dew Point ( °F °C ) Humidity (%) Winds ( mph kmh ) Pressure ( in mb ) Visibility ( mi km ) Precip ( " mm )
12:53 am 00:53 Clear 78 25.6 69 20.6 74 74 WSW 6 9 30.06 1018 10 16 0.00 0.00
1:53 am 01:53 Clear 77 25 69 20.6 77 77 Calm 30.04 1017 10 16 0.00 0.00
2:53 am 02:53 Clear 76 24.4 68 20 77 77 S 6 9 30.02 1017 10 16 0.00 0.00
3:53 am 03:53 Clear 75 23.9 68 20 79 79 Calm 30.01 1016 10 16 0.00 0.00
4:53 am 04:53 Clear 73 22.8 68 20 84 84 S 3 6 30.01 1016 10 16 0.00 0.00
5:53 am 05:53 Sunny 74 23.3 68 20 82 82 S 3 6 30.04 1017 10 16 0.00 0.00
6:53 am 06:53 Sunny 75 23.9 69 20.6 82 82 SSE 5 7 30.06 1018 10 16 0.00 0.00
7:53 am 07:53 Sunny 76 24.4 69 20.6 79 79 S 6 9 30.08 1019 10 16 0.00 0.00
8:53 am 08:53 Sunny 79 26.1 70 21.1 74 74 S 5 7 30.08 1019 10 16 0.00 0.00
9:53 am 09:53 Sunny 84 28.9 71 21.7 65 65 Calm 30.06 1018 10 16 0.00 0.00
10:53 am 10:53 Mostly Sunny 89 31.7 73 22.8 59 59 undefined N/A 30.06 1018 10 16 0.00 0.00
11:53 am 11:53 Partly Cloudy with Nearby Thunderstorms 91 32.8 74 23.3 57 57 WSW 8 13 30.04 1017 10 16 0.00 0.00
12:23 pm 12:23 Partly Cloudy with Thunderstorms 93 33.9 74 23.3 54 54 WSW 14 22 30.00 1016 10 16 0.00 0.00
12:41 pm 12:41 Mostly Cloudy with Thunderstorms 81 27.2 72 22.2 74 74 NW 15 24 30.03 1017 9 14 0.00 0.00
12:47 pm 12:47 Mostly Cloudy with Strong Thunderstorms 79 26 73 23 84 84 N 25 41 30.06 1018 2 2 0.15 3.81
12:50 pm 12:50 Cloudy with Strong Thunderstorms 75 24 72 22 89 89 N 20 31 30.06 1018 1 1 0.24 6.10
12:53 pm 12:53 Cloudy with Strong Thunderstorms 74 23.3 70 21.1 88 88 NNW 21 33 30.06 1018 1 1 0.24 6.10
12:58 pm 12:58 Cloudy with Thunderstorms 75 23.9 70 21.1 84 84 NNW 13 20 30.06 1018 3 4 0.01 0.25
1:05 pm 13:05 Cloudy with Thunderstorms 74 23.3 70 21.1 88 88 NNW 14 22 30.06 1018 4 6 0.09 2.29
1:07 pm 13:07 Cloudy with Strong Thunderstorms 73 22.8 70 21.1 90 90 NNW 14 22 30.03 1017 2 3 0.15 3.81
1:14 pm 13:14 Cloudy with Strong Thunderstorms 73 22.8 70 21.1 90 90 VRB 6 9 30.03 1017 2 2 0.22 5.59
1:17 pm 13:17 Cloudy with Thunderstorms 73 22.8 70 21.1 90 90 N 5 7 30.06 1018 2 3 0.22 5.59
1:25 pm 13:25 Cloudy with Thunderstorms 74 23.3 70 21.1 88 88 Calm 30.06 1018 10 16 0.23 5.84
1:37 pm 13:37 Partly Cloudy with Nearby Thunderstorms 74 23.3 71 21.7 91 91 E 5 7 30.03 1017 10 16 0.23 5.84
1:53 pm 13:53 Sunny with Nearby Thunderstorms 75 23.9 70 21.1 84 84 VRB 3 6 30.03 1017 10 16 0.23 5.84
2:13 pm 14:13 Sunny 74 23.3 70 21.1 88 88 ESE 7 11 30.00 1016 10 16 0.00 0.00
2:53 pm 14:53 Sunny with Nearby Thunderstorms 74 23.3 71 21.7 91 91 VRB 5 7 29.98 1015 10 16 0.00 0.00
3:14 pm 15:14 Sunny 75 23.9 71 21.7 88 88 N 3 6 30.00 1016 10 16 0.00 0.00
3:29 pm 15:29 Sunny with Nearby Thunderstorms 75 23.9 71 21.7 88 88 ESE 5 7 30.00 1016 10 16 0.00 0.00
3:44 pm 15:44 Sunny 75 23.9 71 21.7 88 88 ESE 6 9 30.00 1016 10 16 0.00 0.00
3:53 pm 15:53 Sunny 75 23.9 71 21.7 88 88 SE 6 9 30.01 1016 10 16 0.00 0.00
4:53 pm 16:53 Sunny 76 24.4 70 21.1 82 82 SE 3 6 29.98 1015 10 16 0.00 0.00
5:53 pm 17:53 Sunny 78 25.6 71 21.7 79 79 E 3 6 29.98 1015 10 16 0.00 0.00
6:53 pm 18:53 Mostly Cloudy 78 25.6 72 22.2 82 82 Calm 29.99 1016 10 16 0.00 0.00
7:53 pm 19:53 Sunny 77 25 72 22.2 85 85 Calm 29.99 1016 10 16 0.00 0.00
8:53 pm 20:53 Clear 76 24.4 72 22.2 88 88 SSE 3 6 30.03 1017 10 16 0.00 0.00
9:53 pm 21:53 Clear 75 23.9 70 21.1 84 84 S 5 7 30.05 1018 10 16 0.00 0.00
10:53 pm 22:53 Clear 74 23.3 70 21.1 88 88 SSE 5 7 30.05 1018 10 16 0.00 0.00
11:53 pm 23:53 Clear 74 23.3 69 20.6 85 85 SW 9 15 30.03 1017 10 16 0.00 0.00

Powered by AerisWeather